Location: Zagreb
(45.8000°N, 16.0000°E)
Time: 16:36:52
(UTC+01:00)

Tiros 1 despin weight - Pass Details

Date: 27 January 2020
Orbit: 594 x 642 km, 48.2° (Epoch: 25 February)

Event Time Altitude Azimuth Distance (km) Brightness Sun altitude
Rises 16:16:54 0° 288° (WNW) 2,910 ? 4.7°
Reaches altitude 10° 16:19:21 10° 279° (W) 2,008 ? 4.4°
Maximum altitude 16:23:32 34° 215° (SW) 1,038 ? 3.8°
Drops below altitude 10° 16:27:44 10° 150° (SSE) 2,019 ? 3.1°
Sets 16:30:13 0° 141° (SE) 2,928 ? 2.8°
